FIN6AY EKCH-EFHK

Flight info

Callsign FIN6AY
Flight time 1h 19m
Altitude 37000
Route KEMAX5C KEMAX Q44 IDPAL DCT MOVIS DCT ALAMI DCT OKEVU DCT EVADI Y370 DIVAM DIVAM5A
Aircraft A320/M-SDE3FGHIRWY/LB1

Departure

Time 2026-04-25 13:25
Airport Copenhagen Kastrup Airport (EKCH)

Arrival

Time 2026-04-25 14:45
Airport Helsinki Vantaa Airport (EFHK)
Time Latitude Longitude Altitude Speed Heading
2026-04-25 12:37 55.62899 12.63871 24 ft 0 kts 11°
2026-04-25 13:13 55.62889 12.63867 25 ft 4 kts 11°
2026-04-25 13:13 55.62866 12.63859 26 ft 2 kts 12°
2026-04-25 13:13 55.62848 12.63846 27 ft 4 kts 78°
2026-04-25 13:14 55.62850 12.63805 28 ft 4 kts 104°
2026-04-25 13:14 55.62857 12.63758 25 ft 4 kts 104°
2026-04-25 13:14 55.62862 12.63722 25 ft 4 kts 99°
2026-04-25 13:14 55.62863 12.63677 25 ft 2 kts 86°
2026-04-25 13:15 55.62863 12.63673 24 ft 0 kts 86°
2026-04-25 13:17 55.62862 12.63699 28 ft 4 kts 94°
2026-04-25 13:17 55.62857 12.63757 25 ft 5 kts 103°
2026-04-25 13:18 55.62850 12.63800 28 ft 0 kts 104°
2026-04-25 13:18 55.62846 12.63830 25 ft 5 kts 104°
2026-04-25 13:18 55.62831 12.63917 24 ft 10 kts 119°
2026-04-25 13:18 55.62765 12.63939 24 ft 11 kts 204°
2026-04-25 13:19 55.62703 12.63871 26 ft 10 kts 213°
2026-04-25 13:19 55.62658 12.63819 24 ft 7 kts 212°
2026-04-25 13:19 55.62646 12.63807 27 ft 1 kts 209°
2026-04-25 13:19 55.62641 12.63801 26 ft 1 kts 211°
2026-04-25 13:20 55.62638 12.63798 25 ft 0 kts 210°
2026-04-25 13:20 55.62623 12.63788 24 ft 4 kts 201°
2026-04-25 13:20 55.62580 12.63770 24 ft 8 kts 187°
2026-04-25 13:20 55.62515 12.63781 23 ft 10 kts 163°
2026-04-25 13:21 55.62449 12.63851 22 ft 14 kts 139°
2026-04-25 13:21 55.62385 12.64003 21 ft 17 kts 123°
2026-04-25 13:21 55.62315 12.64189 20 ft 17 kts 122°
2026-04-25 13:21 55.62265 12.64327 23 ft 12 kts 124°
2026-04-25 13:22 55.62185 12.64331 22 ft 14 kts 204°
2026-04-25 13:22 55.62089 12.64252 24 ft 17 kts 205°
2026-04-25 13:22 55.61989 12.64168 24 ft 14 kts 205°
2026-04-25 13:23 55.61833 12.64071 24 ft 12 kts 178°
2026-04-25 13:23 55.61782 12.64078 24 ft 5 kts 176°
2026-04-25 13:23 55.61753 12.64081 27 ft 4 kts 176°
2026-04-25 13:23 55.61718 12.64086 25 ft 6 kts 175°
2026-04-25 13:24 55.61675 12.64092 26 ft 6 kts 177°
2026-04-25 13:24 55.61630 12.64070 27 ft 7 kts 210°
2026-04-25 13:24 55.61606 12.64039 27 ft 0 kts 219°
2026-04-25 13:25 55.61558 12.63965 30 ft 40 kts 221°
2026-04-25 13:25 55.61149 12.63335 28 ft 112 kts 221°
2026-04-25 13:25 55.60419 12.62202 46 ft 162 kts 231°
2026-04-25 13:25 55.59577 12.60842 651 ft 164 kts 233°
2026-04-25 13:26 55.58738 12.59433 1288 ft 169 kts 233°
2026-04-25 13:26 55.57858 12.58004 1919 ft 173 kts 230°
2026-04-25 13:26 55.56906 12.56702 2640 ft 178 kts 217°
2026-04-25 13:26 55.55687 12.55874 3118 ft 198 kts 210°
2026-04-25 13:27 55.54321 12.54986 3421 ft 221 kts 210°
2026-04-25 13:27 55.52799 12.53993 3689 ft 244 kts 209°
2026-04-25 13:27 55.51142 12.52925 4055 ft 260 kts 208°
2026-04-25 13:27 55.49414 12.51836 4687 ft 267 kts 208°
2026-04-25 13:28 55.47648 12.50732 5692 ft 271 kts 208°
2026-04-25 13:28 55.47064 12.50385 6022 ft 275 kts 205°
2026-04-25 13:28 55.43717 12.50828 7556 ft 314 kts 157°
2026-04-25 13:28 55.42044 12.53401 8460 ft 329 kts 125°
2026-04-25 13:29 55.41099 12.57107 9374 ft 336 kts 107°
2026-04-25 13:29 55.40672 12.61165 10111 ft 344 kts 87°
2026-04-25 13:29 55.40753 12.65503 10472 ft 366 kts 84°
2026-04-25 13:30 55.41993 12.73963 11907 ft 357 kts 44°
2026-04-25 13:30 55.43703 12.76988 12747 ft 343 kts 25°
2026-04-25 13:30 55.45757 12.78945 13606 ft 330 kts
2026-04-25 13:31 55.50178 12.79845 15153 ft 318 kts 351°
2026-04-25 13:31 55.52401 12.79943 15936 ft 321 kts 351°
2026-04-25 13:31 55.54646 12.80080 16711 ft 325 kts 351°
2026-04-25 13:31 55.56893 12.80230 17460 ft 328 kts 351°
2026-04-25 13:32 55.59188 12.80381 18209 ft 332 kts 351°
2026-04-25 13:32 55.61509 12.80537 18804 ft 337 kts 352°
2026-04-25 13:32 55.63878 12.81190 19562 ft 353 kts
2026-04-25 13:32 55.66236 12.82702 20264 ft 370 kts 13°
2026-04-25 13:33 55.68490 12.85152 20937 ft 390 kts 24°
2026-04-25 13:33 55.70667 12.88081 21608 ft 394 kts 24°
2026-04-25 13:33 55.72860 12.91041 22270 ft 398 kts 24°
2026-04-25 13:33 55.73604 12.92048 22480 ft 399 kts 24°
2026-04-25 13:34 55.77300 12.97048 23536 ft 405 kts 24°
2026-04-25 13:34 55.79554 13.00099 24079 ft 409 kts 24°
2026-04-25 13:34 55.81827 13.03181 24609 ft 412 kts 24°
2026-04-25 13:34 55.84116 13.06289 25137 ft 416 kts 24°
2026-04-25 13:35 55.86433 13.09435 25580 ft 421 kts 25°
2026-04-25 13:35 55.88775 13.12613 26135 ft 426 kts 24°
2026-04-25 13:35 55.91141 13.15829 26567 ft 430 kts 25°
2026-04-25 13:35 55.93533 13.19086 27019 ft 434 kts 25°
2026-04-25 13:36 55.95940 13.22372 27471 ft 437 kts 25°
2026-04-25 13:36 55.98364 13.25690 27912 ft 441 kts 25°
2026-04-25 13:36 56.00805 13.29044 28364 ft 444 kts 25°
2026-04-25 13:36 56.02430 13.31281 28656 ft 446 kts 25°
2026-04-25 13:37 56.04902 13.34689 29086 ft 450 kts 25°
2026-04-25 13:37 56.07389 13.38121 29498 ft 453 kts 25°
2026-04-25 13:37 56.09892 13.41576 29906 ft 456 kts 26°
2026-04-25 13:37 56.12313 13.45385 30331 ft 471 kts 35°
2026-04-25 13:38 56.14465 13.49948 30654 ft 487 kts 45°
2026-04-25 13:38 56.16428 13.54930 30996 ft 490 kts 45°
2026-04-25 13:38 56.18396 13.59933 31333 ft 491 kts 45°
2026-04-25 13:38 56.20368 13.64942 31726 ft 490 kts 46°
2026-04-25 13:39 56.22330 13.69937 32223 ft 488 kts 46°
2026-04-25 13:39 56.24281 13.74917 32719 ft 486 kts 46°
2026-04-25 13:39 56.26220 13.79879 33210 ft 483 kts 46°
2026-04-25 13:39 56.28146 13.84819 33695 ft 481 kts 46°
2026-04-25 13:40 56.30064 13.89742 34110 ft 480 kts 47°
2026-04-25 13:40 56.31986 13.94673 34416 ft 481 kts 47°
2026-04-25 13:40 56.33905 13.99604 34830 ft 480 kts 48°
2026-04-25 13:40 56.35814 14.04531 35235 ft 478 kts 48°
2026-04-25 13:41 56.37711 14.09442 35618 ft 476 kts 48°
2026-04-25 13:41 56.39602 14.14342 36003 ft 474 kts 49°
2026-04-25 13:41 56.41482 14.19222 36357 ft 473 kts 49°
2026-04-25 13:41 56.43354 14.24095 36637 ft 472 kts 49°
2026-04-25 13:42 56.45217 14.28951 36698 ft 468 kts 49°
2026-04-25 13:42 56.48920 14.38574 36697 ft 464 kts 49°
2026-04-25 13:43 56.52623 14.48141 36689 ft 464 kts 49°
2026-04-25 13:43 56.56322 14.57716 36678 ft 463 kts 49°
2026-04-25 13:44 56.60016 14.67303 36677 ft 465 kts 49°
2026-04-25 13:44 56.63709 14.76960 36666 ft 466 kts 50°
2026-04-25 13:45 56.67371 14.86603 36659 ft 466 kts 50°
2026-04-25 13:45 56.71056 14.96329 36659 ft 467 kts 50°
2026-04-25 13:46 56.74764 15.06138 36695 ft 467 kts 50°
2026-04-25 13:46 56.78445 15.15924 36661 ft 468 kts 50°
2026-04-25 13:47 56.82118 15.25736 36648 ft 469 kts 50°
2026-04-25 13:47 56.85764 15.35513 36654 ft 469 kts 50°
2026-04-25 13:48 56.89438 15.45386 36650 ft 470 kts 50°
2026-04-25 13:48 56.93116 15.55324 36628 ft 472 kts 50°
2026-04-25 13:49 56.96797 15.65309 36665 ft 473 kts 50°
2026-04-25 13:49 57.00473 15.75319 36647 ft 473 kts 50°
2026-04-25 13:50 57.04134 15.85367 36642 ft 473 kts 51°
2026-04-25 13:50 57.07801 15.95438 36639 ft 474 kts 51°
2026-04-25 13:51 57.11458 16.05511 36631 ft 474 kts 51°
2026-04-25 13:51 57.15100 16.15618 36630 ft 474 kts 51°
2026-04-25 13:52 57.18736 16.25754 36664 ft 473 kts 51°
2026-04-25 13:52 57.22421 16.35794 36650 ft 469 kts 46°
2026-04-25 13:53 57.26517 16.45153 36645 ft 468 kts 45°
2026-04-25 13:53 57.30611 16.54502 36639 ft 468 kts 45°
2026-04-25 13:54 57.34674 16.63819 36635 ft 468 kts 45°
2026-04-25 13:54 57.38756 16.73240 36668 ft 468 kts 46°
2026-04-25 13:55 57.42831 16.82670 36656 ft 468 kts 46°
2026-04-25 13:55 57.46889 16.92121 36638 ft 468 kts 46°
2026-04-25 13:56 57.50947 17.01595 36631 ft 468 kts 46°
2026-04-25 13:56 57.54999 17.11077 36617 ft 468 kts 46°
2026-04-25 13:57 57.59048 17.20591 36614 ft 469 kts 46°
2026-04-25 13:57 57.63065 17.30068 36604 ft 469 kts 46°
2026-04-25 13:58 57.67098 17.39635 36605 ft 469 kts 46°
2026-04-25 13:58 57.71124 17.49228 36601 ft 469 kts 46°
2026-04-25 13:59 57.75142 17.58838 36601 ft 469 kts 46°
2026-04-25 13:59 57.79153 17.68468 36616 ft 469 kts 47°
2026-04-25 14:00 57.81834 17.74930 36630 ft 469 kts 47°
2026-04-25 14:00 57.87163 17.87814 36612 ft 469 kts 47°
2026-04-25 14:01 57.91162 17.97505 36608 ft 469 kts 47°
2026-04-25 14:01 57.95150 18.07225 36604 ft 469 kts 47°
2026-04-25 14:02 57.99127 18.16989 36598 ft 470 kts 47°
2026-04-25 14:02 58.03108 18.26766 36629 ft 470 kts 47°
2026-04-25 14:03 58.07073 18.36562 36624 ft 470 kts 47°
2026-04-25 14:03 58.11030 18.46389 36621 ft 469 kts 47°
2026-04-25 14:04 58.14951 18.56155 36616 ft 469 kts 48°
2026-04-25 14:04 58.18893 18.65994 36603 ft 469 kts 48°
2026-04-25 14:05 58.22825 18.75863 36643 ft 469 kts 48°
2026-04-25 14:05 58.26747 18.85762 36636 ft 468 kts 48°
2026-04-25 14:06 58.30645 18.95629 36628 ft 467 kts 48°
2026-04-25 14:06 58.34532 19.05509 36624 ft 466 kts 48°
2026-04-25 14:07 58.38423 19.15452 36623 ft 465 kts 48°
2026-04-25 14:07 58.42286 19.25338 36621 ft 465 kts 48°
2026-04-25 14:08 58.46121 19.35192 36641 ft 465 kts 49°
2026-04-25 14:08 58.49967 19.45132 36627 ft 465 kts 49°
2026-04-25 14:09 58.53817 19.55118 36617 ft 465 kts 49°
2026-04-25 14:09 58.57629 19.65066 36606 ft 465 kts 49°
2026-04-25 14:10 58.61469 19.75116 36598 ft 465 kts 49°
2026-04-25 14:10 58.65268 19.85120 36622 ft 465 kts 49°
2026-04-25 14:11 58.69048 19.95122 36623 ft 463 kts 49°
2026-04-25 14:11 58.72841 20.05182 36607 ft 462 kts 50°
2026-04-25 14:12 58.76591 20.15147 36609 ft 462 kts 49°
2026-04-25 14:12 58.80349 20.25181 36606 ft 462 kts 50°
2026-04-25 14:13 58.84108 20.35276 36599 ft 462 kts 50°
2026-04-25 14:13 58.87844 20.45356 36599 ft 462 kts 50°
2026-04-25 14:14 58.91578 20.55464 36588 ft 463 kts 50°
2026-04-25 14:14 58.95309 20.65616 36584 ft 463 kts 51°
2026-04-25 14:15 58.99033 20.75784 36573 ft 463 kts 51°
2026-04-25 14:15 59.02748 20.85988 36552 ft 463 kts 51°
2026-04-25 14:16 59.06399 20.96297 36564 ft 464 kts 54°
2026-04-25 14:16 59.09786 21.07001 36547 ft 465 kts 57°
2026-04-25 14:17 59.13073 21.17867 36540 ft 466 kts 56°
2026-04-25 14:17 59.16401 21.28692 36522 ft 466 kts 55°
2026-04-25 14:18 59.19775 21.39502 36523 ft 466 kts 55°
2026-04-25 14:18 59.23142 21.50330 36518 ft 467 kts 55°
2026-04-25 14:19 59.26477 21.61148 36529 ft 467 kts 56°
2026-04-25 14:19 59.29275 21.70285 36512 ft 467 kts 56°
2026-04-25 14:20 59.32584 21.81139 36504 ft 467 kts 56°
2026-04-25 14:20 59.35898 21.92083 36509 ft 466 kts 55°
2026-04-25 14:21 59.39212 22.03021 36487 ft 466 kts 56°
2026-04-25 14:21 59.42517 22.13959 36484 ft 466 kts 56°
2026-04-25 14:22 59.45814 22.24936 36469 ft 467 kts 56°
2026-04-25 14:22 59.49111 22.35977 36445 ft 468 kts 57°
2026-04-25 14:23 59.52393 22.47067 36430 ft 469 kts 57°
2026-04-25 14:23 59.54035 22.52644 35925 ft 472 kts 57°
2026-04-25 14:23 59.55694 22.58281 34899 ft 480 kts 57°
2026-04-25 14:23 59.57381 22.64010 34067 ft 484 kts 57°
2026-04-25 14:24 59.59069 22.69765 33435 ft 483 kts 57°
2026-04-25 14:24 59.60746 22.75495 32722 ft 480 kts 57°
2026-04-25 14:24 59.62408 22.81180 32089 ft 476 kts 57°
2026-04-25 14:24 59.64055 22.86829 31481 ft 473 kts 57°
2026-04-25 14:25 59.65690 22.92456 30886 ft 470 kts 58°
2026-04-25 14:25 59.67283 22.97965 30309 ft 467 kts 58°
2026-04-25 14:25 59.68890 23.03539 29613 ft 467 kts 58°
2026-04-25 14:25 59.69984 23.07334 28854 ft 472 kts 58°
2026-04-25 14:26 59.72148 23.14840 27518 ft 475 kts 58°
2026-04-25 14:26 59.73787 23.20541 26595 ft 476 kts 59°
2026-04-25 14:26 59.75427 23.26259 26032 ft 476 kts 59°
2026-04-25 14:26 59.77042 23.31903 25606 ft 466 kts 59°
2026-04-25 14:27 59.78625 23.37450 25197 ft 456 kts 59°
2026-04-25 14:27 59.80167 23.42873 24770 ft 447 kts 59°
2026-04-25 14:27 59.81679 23.48213 24367 ft 439 kts 60°
2026-04-25 14:27 59.83161 23.53461 23932 ft 432 kts 60°
2026-04-25 14:28 59.84625 23.58644 23522 ft 426 kts 60°
2026-04-25 14:28 59.86067 23.63751 23052 ft 422 kts 61°
2026-04-25 14:28 59.87494 23.68824 22497 ft 419 kts 61°
2026-04-25 14:28 59.88908 23.73876 21884 ft 416 kts 61°
2026-04-25 14:29 59.90309 23.78890 21322 ft 413 kts 61°
2026-04-25 14:29 59.91630 23.83955 20761 ft 410 kts 67°
2026-04-25 14:29 59.92751 23.89179 20239 ft 408 kts 67°
2026-04-25 14:29 59.93861 23.94368 19709 ft 406 kts 67°
2026-04-25 14:30 59.94961 23.99536 19184 ft 403 kts 68°
2026-04-25 14:30 59.97127 24.09787 18164 ft 399 kts 68°
2026-04-25 14:30 59.98200 24.14881 17672 ft 397 kts 67°
2026-04-25 14:31 59.99265 24.19946 17117 ft 394 kts 67°
2026-04-25 14:31 60.00308 24.24916 16589 ft 392 kts 68°
2026-04-25 14:31 60.01360 24.29933 16053 ft 389 kts 68°
2026-04-25 14:31 60.02400 24.34905 15541 ft 386 kts 68°
2026-04-25 14:32 60.03431 24.39837 15025 ft 383 kts 68°
2026-04-25 14:32 60.04453 24.44739 14532 ft 380 kts 68°
2026-04-25 14:32 60.05463 24.49606 14045 ft 377 kts 68°
2026-04-25 14:32 60.06461 24.54435 13570 ft 374 kts 68°
2026-04-25 14:33 60.07449 24.59237 13090 ft 371 kts 68°
2026-04-25 14:33 60.08423 24.63997 12587 ft 367 kts 68°
2026-04-25 14:33 60.09382 24.68689 12149 ft 361 kts 67°
2026-04-25 14:33 60.10559 24.73070 11811 ft 352 kts 53°
2026-04-25 14:34 60.12120 24.76756 11481 ft 343 kts 45°
2026-04-25 14:34 60.13728 24.80236 11171 ft 336 kts 45°
2026-04-25 14:34 60.15302 24.83657 10862 ft 330 kts 45°
2026-04-25 14:34 60.16837 24.87011 10601 ft 322 kts 45°
2026-04-25 14:35 60.18332 24.90288 10386 ft 313 kts 46°
2026-04-25 14:35 60.19780 24.93464 10146 ft 306 kts 45°
2026-04-25 14:35 60.21218 24.96618 9770 ft 303 kts 45°
2026-04-25 14:35 60.22624 24.99704 9377 ft 302 kts 45°
2026-04-25 14:36 60.24033 25.02805 8943 ft 300 kts 45°
2026-04-25 14:36 60.25429 25.05887 8530 ft 297 kts 45°
2026-04-25 14:36 60.26816 25.08960 8104 ft 295 kts 45°
2026-04-25 14:36 60.28188 25.12003 7699 ft 291 kts 45°
2026-04-25 14:37 60.29548 25.15015 7274 ft 289 kts 45°
2026-04-25 14:37 60.30896 25.17994 6857 ft 286 kts 45°
2026-04-25 14:37 60.32230 25.20943 6445 ft 283 kts 45°
2026-04-25 14:37 60.33546 25.23866 6134 ft 277 kts 45°
2026-04-25 14:38 60.34811 25.26682 6006 ft 264 kts 45°
2026-04-25 14:38 60.36016 25.29371 5863 ft 252 kts 45°
2026-04-25 14:38 60.37184 25.31975 5723 ft 248 kts 44°
2026-04-25 14:38 60.38391 25.34380 5549 ft 245 kts 31°
2026-04-25 14:39 60.39959 25.35585 5042 ft 238 kts 360°
2026-04-25 14:39 60.41557 25.35189 4630 ft 231 kts 335°
2026-04-25 14:39 60.42864 25.33450 4338 ft 221 kts 314°
2026-04-25 14:39 60.43921 25.31269 4056 ft 215 kts 303°
2026-04-25 14:40 60.44531 25.28600 3896 ft 205 kts 282°
2026-04-25 14:40 60.44624 25.25797 3735 ft 197 kts 264°
2026-04-25 14:40 60.44250 25.23183 3542 ft 193 kts 245°
2026-04-25 14:40 60.43469 25.20986 3305 ft 193 kts 230°
2026-04-25 14:41 60.42567 25.18986 3038 ft 191 kts 231°
2026-04-25 14:41 60.41677 25.17003 2779 ft 189 kts 231°
2026-04-25 14:41 60.40804 25.15060 2550 ft 184 kts 232°
2026-04-25 14:41 60.39958 25.13181 2271 ft 178 kts 232°
2026-04-25 14:42 60.39148 25.11382 2027 ft 166 kts 232°
2026-04-25 14:42 60.38646 25.10270 1876 ft 156 kts 232°
2026-04-25 14:42 60.37719 25.08211 1607 ft 142 kts 232°
2026-04-25 14:42 60.37071 25.06775 1426 ft 138 kts 232°
2026-04-25 14:43 60.36418 25.05324 1223 ft 138 kts 232°
2026-04-25 14:43 60.35792 25.03940 1052 ft 130 kts 230°
2026-04-25 14:43 60.35188 25.02602 840 ft 125 kts 231°
2026-04-25 14:43 60.34612 25.01324 651 ft 124 kts 230°
2026-04-25 14:44 60.34026 25.00030 503 ft 123 kts 230°
2026-04-25 14:44 60.33444 24.98751 322 ft 123 kts 231°
2026-04-25 14:44 60.32873 24.97485 172 ft 116 kts 231°
2026-04-25 14:44 60.32440 24.96522 175 ft 55 kts 227°
2026-04-25 14:45 60.32333 24.96286 177 ft 28 kts 227°
2026-04-25 14:45 60.32180 24.95952 177 ft 22 kts 227°
2026-04-25 14:45 60.32075 24.95818 175 ft 14 kts 183°
2026-04-25 14:45 60.31992 24.95910 172 ft 12 kts 138°
2026-04-25 14:46 60.31972 24.96043 170 ft 12 kts 65°
2026-04-25 14:46 60.32027 24.96175 168 ft 12 kts 47°
2026-04-25 14:46 60.32085 24.96301 168 ft 12 kts 47°
2026-04-25 14:46 60.32139 24.96420 168 ft 11 kts 47°
2026-04-25 14:47 60.32190 24.96534 168 ft 11 kts 47°
2026-04-25 14:47 60.32224 24.96608 168 ft 11 kts 47°
2026-04-25 14:47 60.32211 24.96770 166 ft 11 kts 147°
2026-04-25 14:47 60.32144 24.96854 166 ft 11 kts 149°
2026-04-25 14:48 60.32080 24.96816 167 ft 11 kts 225°
2026-04-25 14:48 60.32027 24.96731 167 ft 10 kts 193°
2026-04-25 14:48 60.31979 24.96737 167 ft 3 kts 175°
2026-04-25 14:48 60.31965 24.96740 167 ft 0 kts 175°